| time (UTC) | temp F | wind direction | speed MPH | gust MPH | rain 1hr in | rain 24hr in | rain mn in | humidity % | barometer mb |
| 20260904104520 | 68 | 248 | 5.0 | 14.0 | 0.00 | 0.01 | 0.01 | 83 | 1014.3 |
| 20260904104018 | 68 | 275 | 5.0 | 14.0 | 0.00 | 0.01 | 0.01 | 83 | 1014.4 |
| 20260904103520 | 68 | 250 | 5.0 | 10.0 | 0.00 | 0.01 | 0.01 | 82 | 1014.4 |
| 20260904103018 | 68 | 186 | 4.0 | 12.0 | 0.00 | 0.01 | 0.01 | 83 | 1014.5 |
| 20260904102516 | 68 | 204 | 3.0 | 12.0 | 0.00 | 0.01 | 0.01 | 85 | 1014.4 |
| 20260904102015 | 67 | 180 | 4.0 | 11.0 | 0.00 | 0.01 | 0.01 | 84 | 1014.5 |
| 20260904101516 | 67 | 229 | 4.0 | 11.0 | 0.00 | 0.01 | 0.01 | 85 | 1014.6 |
| 20260904101013 | 66 | 236 | 3.0 | 10.0 | 0.00 | 0.01 | 0.01 | 87 | 1014.6 |
| 20260904100513 | 66 | 229 | 3.0 | 10.0 | 0.00 | 0.01 | 0.01 | 88 | 1014.8 |
| 20260904100010 | 65 | 282 | 3.0 | 10.0 | 0.00 | 0.01 | 0.01 | 88 | 1014.9 |
| 20260904095509 | 65 | 238 | 2.0 | 7.0 | 0.00 | 0.01 | 0.01 | 90 | 1015.0 |
| 20260904095007 | 65 | 234 | 3.0 | 6.0 | 0.00 | 0.01 | 0.01 | 90 | 1015.0 |
| 20260904094507 | 65 | 205 | 1.0 | 9.0 | 0.00 | 0.01 | 0.01 | 90 | 1015.0 |
| 20260904094007 | 65 | 201 | 4.0 | 9.0 | 0.00 | 0.01 | 0.01 | 91 | 1015.0 |
| 20260904093506 | 64 | 140 | 3.0 | 7.0 | 0.00 | 0.01 | 0.01 | 90 | 1015.1 |
| 20260904093004 | 65 | 196 | 3.0 | 8.0 | 0.00 | 0.01 | 0.01 | 91 | 1015.2 |
| 20260904092504 | 65 | 255 | 2.0 | 9.0 | 0.00 | 0.01 | 0.01 | 91 | 1015.3 |
| 20260904092004 | 64 | 298 | 3.0 | 10.0 | 0.00 | 0.01 | 0.01 | 91 | 1015.4 |
| 20260904091504 | 64 | 234 | 3.0 | 12.0 | 0.00 | 0.01 | 0.01 | 92 | 1015.5 |
| 20260904091001 | 64 | 212 | 4.0 | 12.0 | 0.00 | 0.01 | 0.01 | 93 | 1015.5 |
| 20260904090500 | 64 | 219 | 3.0 | 9.0 | 0.00 | 0.01 | 0.01 | 93 | 1015.4 |
| 20260904090101 | 63 | 248 | 4.0 | 9.0 | 0.00 | 0.01 | 0.01 | 93 | 1015.5 |
| 20260904085601 | 63 | 249 | 3.0 | 9.0 | 0.00 | 0.01 | 0.01 | 94 | 1015.7 |
| 20260904085059 | 63 | 223 | 3.0 | 9.0 | 0.00 | 0.01 | 0.01 | 94 | 1015.6 |
| 20260904084600 | 63 | 231 | 1.0 | 8.0 | 0.00 | 0.01 | 0.01 | 95 | 1015.6 |
| 20260904084100 | 63 | 246 | 3.0 | 13.0 | 0.00 | 0.01 | 0.01 | 96 | 1015.5 |
| 20260904083559 | 62 | 233 | 4.0 | 13.0 | 0.00 | 0.01 | 0.01 | 96 | 1015.6 |
| 20260904083054 | 62 | 250 | 5.0 | 10.0 | 0.00 | 0.01 | 0.01 | 97 | 1015.6 |
| 20260904082553 | 61 | 199 | 3.0 | 10.0 | 0.01 | 0.01 | 0.01 | 97 | 1015.7 |
| 20260904082053 | 61 | 248 | 4.0 | 8.0 | 0.01 | 0.01 | 0.01 | 98 | 1015.7 |
| 20260904081552 | 60 | 240 | 3.0 | 8.0 | 0.01 | 0.01 | 0.01 | 98 | 1015.8 |
| 20260904081152 | 60 | 311 | 3.0 | 8.0 | 0.01 | 0.01 | 0.01 | 97 | 1015.7 |
| 20260904080551 | 60 | 190 | 2.0 | 7.0 | 0.01 | 0.01 | 0.01 | 98 | 1015.9 |
| 20260904080056 | 60 | 227 | 0.0 | 6.0 | 0.01 | 0.01 | 0.01 | 97 | 1015.9 |
| 20260904075551 | 60 | 225 | 2.0 | 6.0 | 0.01 | 0.01 | 0.01 | 97 | 1015.9 |
| 20260904075050 | 60 | 250 | 1.0 | 4.0 | 0.01 | 0.01 | 0.01 | 97 | 1015.9 |
| 20260904074554 | 60 | 264 | 1.0 | 4.0 | 0.01 | 0.01 | 0.01 | 97 | 1016.0 |
| 20260904074048 | 60 | 180 | 1.0 | 6.0 | 0.01 | 0.01 | 0.01 | 97 | 1016.1 |
| 20260904073547 | 60 | 186 | 1.0 | 6.0 | 0.01 | 0.01 | 0.01 | 96 | 1016.1 |
| 20260904073047 | 60 | 185 | 1.0 | 7.0 | 0.01 | 0.01 | 0.01 | 96 | 1016.3 |
| 20260904072546 | 60 | 232 | 1.0 | 8.0 | 0.00 | 0.00 | 0.00 | 95 | 1016.2 |
| 20260904072050 | 60 | 259 | 3.0 | 7.0 | 0.00 | 0.00 | 0.00 | 95 | 1016.4 |
| 20260904071548 | 61 | 242 | 2.0 | 6.0 | 0.00 | 0.00 | 0.00 | 94 | 1016.3 |
| 20260904071046 | 61 | 269 | 2.0 | 7.0 | 0.00 | 0.00 | 0.00 | 94 | 1016.3 |
| 20260904070548 | 61 | 295 | 0.0 | 5.0 | 0.00 | 0.00 | 0.00 | 93 | 1016.4 |
| 20260904070048 | 61 | 233 | 0.0 | 1.0 | 0.00 | 0.00 | 0.00 | 93 | 1016.3 |
| 20260904065543 | 61 | 271 | 0.0 | 1.0 | 0.00 | 0.00 | 0.00 | 93 | 1016.2 |
| 20260904065047 | 61 | 191 | 0.0 | 0.0 | 0.00 | 0.00 | 0.00 | 93 | 1016.3 |
| 20260904064546 | 61 | 182 | 0.0 | 0.0 | 0.00 | 0.00 | 0.00 | 93 | 1016.5 |
| 20260904064043 | 61 | 251 | 0.0 | 0.0 | 0.00 | 0.00 | 0.00 | 93 | 1016.2 |
| 20260904063543 | 61 | 248 | 0.0 | 0.0 | 0.00 | 0.00 | 0.00 | 93 | 1016.3 |
| 20260904063039 | 60 | 221 | 0.0 | 0.0 | 0.00 | 0.00 | 0.00 | 93 | 1016.2 |
| 20260904062538 | 60 | 221 | 0.0 | 0.0 | 0.00 | 0.00 | 0.00 | 93 | 1016.3 |
| 20260904062038 | 60 | 246 | 0.0 | 0.0 | 0.00 | 0.00 | 0.00 | 92 | 1016.4 |
| 20260904061548 | 60 | 244 | 0.0 | 0.0 | 0.00 | 0.00 | 0.00 | 92 | 1016.6 |
| 20260904061038 | 60 | 242 | 0.0 | 0.0 | 0.00 | 0.00 | 0.00 | 92 | 1016.5 |
| 20260904060538 | 60 | 230 | 0.0 | 0.0 | 0.00 | 0.00 | 0.00 | 92 | 1016.4 |
| 20260904060038 | 60 | 274 | 0.0 | 0.0 | 0.00 | 0.00 | 0.00 | 92 | 1016.6 |
| 20260904055538 | 60 | 195 | 0.0 | 0.0 | 0.00 | 0.00 | 0.00 | 92 | 1016.6 |
| 20260904055037 | 60 | 238 | 0.0 | 0.0 | 0.00 | 0.00 | 0.00 | 92 | 1016.6 |
| 20260904054537 | 60 | 263 | 0.0 | 0.0 | 0.00 | 0.00 | 0.00 | 92 | 1016.5 |
| 20260904054037 | 60 | 290 | 0.0 | 0.0 | 0.00 | 0.00 | 0.00 | 92 | 1016.5 |
| 20260904053537 | 60 | 238 | 0.0 | 0.0 | 0.00 | 0.00 | 0.00 | 92 | 1016.7 |
| 20260904053036 | 60 | 250 | 0.0 | 0.0 | 0.00 | 0.00 | 0.00 | 92 | 1016.7 |
| 20260904052536 | 60 | 247 | 0.0 | 0.0 | 0.00 | 0.00 | 0.00 | 92 | 1016.6 |
| 20260904052036 | 60 | 250 | 0.0 | 0.0 | 0.00 | 0.00 | 0.00 | 92 | 1016.4 |
| 20260904051538 | 60 | 181 | 0.0 | 0.0 | 0.00 | 0.00 | 0.00 | 92 | 1016.6 |
| 20260904051032 | 60 | 206 | 0.0 | 0.0 | 0.00 | 0.00 | 0.00 | 92 | 1016.8 |
| 20260904050535 | 60 | 206 | 0.0 | 0.0 | 0.00 | 0.00 | 0.00 | 92 | 1016.9 |
| 20260904050032 | 60 | 250 | 0.0 | 0.0 | 0.00 | 0.00 | 0.00 | 92 | 1017.1 |
| 20260904045532 | 60 | 264 | 0.0 | 0.0 | 0.00 | 0.00 | 0.00 | 92 | 1016.9 |
| 20260904045030 | 60 | 225 | 0.0 | 0.0 | 0.00 | 0.00 | 0.00 | 92 | 1017.0 |
| 20260904044535 | 60 | 229 | 0.0 | 0.0 | 0.00 | 0.00 | 0.00 | 92 | 1016.9 |
| 20260904044033 | 60 | 225 | 0.0 | 0.0 | 0.00 | 0.00 | 0.00 | 92 | 1016.6 |
| 20260904043528 | 59 | 235 | 0.0 | 0.0 | 0.00 | 0.00 | 0.00 | 92 | 1016.7 |
| 20260904043028 | 59 | 231 | 0.0 | 0.0 | 0.00 | 0.00 | 0.00 | 92 | 1016.8 |
| 20260904042527 | 59 | 231 | 0.0 | 0.0 | 0.00 | 0.00 | 0.00 | 92 | 1016.9 |
| 20260904042027 | 59 | 247 | 0.0 | 0.0 | 0.00 | 0.00 | 0.00 | 92 | 1016.9 |
| 20260904041526 | 59 | 243 | 0.0 | 0.0 | 0.00 | 0.00 | 0.00 | 92 | 1016.9 |
| 20260904041027 | 59 | 248 | 0.0 | 0.0 | 0.00 | 0.00 | 0.00 | 92 | 1017.0 |
| 20260904040526 | 59 | 252 | 0.0 | 0.0 | 0.00 | 0.00 | 0.00 | 92 | 1017.0 |
| 20260904040026 | 59 | 250 | 0.0 | 0.0 | 0.00 | 0.00 | 0.00 | 92 | 1017.0 |
| 20260904035526 | 59 | 242 | 0.0 | 0.0 | 0.00 | 0.00 | 0.00 | 93 | 1017.0 |
| 20260904035125 | 59 | 242 | 0.0 | 0.0 | 0.00 | 0.00 | 0.00 | 93 | 1017.0 |
| 20260904034542 | 59 | 240 | 0.0 | 0.0 | 0.00 | 0.00 | 0.00 | 92 | 1017.1 |
| 20260904034026 | 59 | 262 | 0.0 | 0.0 | 0.00 | 0.00 | 0.00 | 93 | 1017.2 |
| 20260904033524 | 59 | 265 | 0.0 | 0.0 | 0.00 | 0.00 | 0.00 | 93 | 1017.3 |
| 20260904033024 | 58 | 265 | 0.0 | 0.0 | 0.00 | 0.00 | 0.00 | 93 | 1017.2 |
| 20260904032522 | 58 | 194 | 0.0 | 0.0 | 0.00 | 0.00 | 0.00 | 93 | 1017.2 |
| 20260904032022 | 58 | 171 | 0.0 | 0.0 | 0.00 | 0.00 | 0.00 | 92 | 1017.2 |
| 20260904031522 | 58 | 171 | 0.0 | 0.0 | 0.00 | 0.00 | 0.00 | 92 | 1017.2 |
| 20260904031021 | 59 | 171 | 0.0 | 0.0 | 0.00 | 0.00 | 0.00 | 92 | 1017.1 |
| 20260904030521 | 59 | 171 | 0.0 | 0.0 | 0.00 | 0.00 | 0.00 | 92 | 1017.2 |
| 20260904030021 | 59 | 171 | 0.0 | 0.0 | 0.00 | 0.00 | 0.00 | 92 | 1017.2 |
| 20260904025521 | 59 | 238 | 0.0 | 0.0 | 0.00 | 0.00 | 0.00 | 92 | 1017.2 |
| 20260904025020 | 59 | 238 | 0.0 | 0.0 | 0.00 | 0.00 | 0.00 | 92 | 1017.3 |
| 20260904024520 | 59 | 238 | 0.0 | 0.0 | 0.00 | 0.00 | 0.00 | 92 | 1017.3 |
| 20260904024020 | 59 | 238 | 0.0 | 0.0 | 0.00 | 0.00 | 0.00 | 92 | 1017.4 |
| 20260904023519 | 59 | 257 | 0.0 | 0.0 | 0.00 | 0.00 | 0.00 | 92 | 1017.3 |
| 20260904023019 | 58 | 274 | 0.0 | 0.0 | 0.00 | 0.00 | 0.00 | 92 | 1017.5 |
| 20260904022524 | 58 | 274 | 0.0 | 0.0 | 0.00 | 0.00 | 0.00 | 92 | 1017.3 |
| 20260904022021 | 58 | 274 | 0.0 | 0.0 | 0.00 | 0.00 | 0.00 | 92 | 1017.3 |
| 20260904021517 | 58 | 242 | 0.0 | 0.0 | 0.00 | 0.00 | 0.00 | 92 | 1017.3 |
| 20260904021017 | 59 | 266 | 0.0 | 0.0 | 0.00 | 0.00 | 0.00 | 91 | 1017.4 |
| 20260904020516 | 59 | 266 | 0.0 | 0.0 | 0.00 | 0.00 | 0.00 | 91 | 1017.5 |
| 20260904020016 | 59 | 266 | 0.0 | 0.0 | 0.00 | 0.00 | 0.00 | 91 | 1017.5 |
| 20260904015520 | 59 | 266 | 0.0 | 0.0 | 0.00 | 0.00 | 0.00 | 91 | 1017.5 |
| 20260904015015 | 59 | 266 | 0.0 | 0.0 | 0.00 | 0.00 | 0.00 | 91 | 1017.6 |
| 20260904014515 | 59 | 266 | 0.0 | 0.0 | 0.00 | 0.00 | 0.00 | 91 | 1017.6 |
| 20260904014015 | 59 | 266 | 0.0 | 0.0 | 0.00 | 0.00 | 0.00 | 90 | 1017.6 |
| 20260904013513 | 59 | 219 | 0.0 | 0.0 | 0.00 | 0.00 | 0.00 | 90 | 1017.7 |
| 20260904013013 | 59 | 219 | 0.0 | 0.0 | 0.00 | 0.00 | 0.00 | 90 | 1017.6 |
| 20260904012513 | 59 | 200 | 0.0 | 0.0 | 0.00 | 0.00 | 0.00 | 90 | 1017.8 |
| 20260904012013 | 59 | 196 | 0.0 | 0.0 | 0.00 | 0.00 | 0.00 | 90 | 1017.8 |
| 20260904011537 | 60 | 196 | 0.0 | 0.0 | 0.00 | 0.00 | 0.00 | 89 | 1017.8 |
| 20260904011012 | 60 | 196 | 0.0 | 0.0 | 0.00 | 0.00 | 0.00 | 89 | 1017.6 |
| 20260904010511 | 60 | 196 | 0.0 | 0.0 | 0.00 | 0.00 | 0.00 | 89 | 1017.8 |
| 20260904010012 | 60 | 198 | 0.0 | 0.0 | 0.00 | 0.00 | 0.00 | 89 | 1017.9 |
| 20260904005515 | 60 | 180 | 0.0 | 0.0 | 0.00 | 0.00 | 0.00 | 89 | 1017.8 |
| 20260904005011 | 60 | 180 | 0.0 | 0.0 | 0.00 | 0.00 | 0.00 | 89 | 1017.8 |
| 20260904004511 | 60 | 144 | 0.0 | 0.0 | 0.00 | 0.00 | 0.00 | 89 | 1017.9 |
| 20260904004014 | 60 | 229 | 0.0 | 0.0 | 0.00 | 0.00 | 0.00 | 89 | 1017.8 |
| 20260904003516 | 60 | 233 | 0.0 | 0.0 | 0.00 | 0.00 | 0.00 | 89 | 1018.1 |
| 20260904003013 | 60 | 210 | 0.0 | 0.0 | 0.00 | 0.00 | 0.00 | 89 | 1017.9 |
| 20260904002510 | 60 | 210 | 0.0 | 0.0 | 0.00 | 0.00 | 0.00 | 89 | 1017.8 |
| 20260904002010 | 59 | 210 | 0.0 | 0.0 | 0.00 | 0.00 | 0.00 | 89 | 1017.7 |
| 20260904001510 | 60 | 210 | 0.0 | 0.0 | 0.00 | 0.00 | 0.00 | 89 | 1017.8 |
| 20260904001009 | 60 | 210 | 0.0 | 0.0 | 0.00 | 0.00 | 0.00 | 89 | 1017.7 |
| 20260904000509 | 60 | 210 | 0.0 | 0.0 | 0.00 | 0.00 | 0.00 | 89 | 1017.7 |
| 20260904000011 | 60 | 210 | 0.0 | 0.0 | 0.00 | 0.00 | 0.00 | 89 | 1017.9 |
| 20260903235511 | 60 | 210 | 0.0 | 0.0 | 0.00 | 0.00 | 0.00 | 89 | 1018.0 |
| 20260903235008 | 60 | 210 | 0.0 | 0.0 | 0.00 | 0.00 | 0.00 | 89 | 1018.0 |
| 20260903234507 | 60 | 210 | 0.0 | 0.0 | 0.00 | 0.00 | 0.00 | 89 | 1018.1 |
| 20260903234007 | 60 | 210 | 0.0 | 0.0 | 0.00 | 0.00 | 0.00 | 89 | 1018.3 |
| 20260903233505 | 60 | 210 | 0.0 | 0.0 | 0.00 | 0.00 | 0.00 | 88 | 1018.3 |
| 20260903233016 | 60 | 210 | 0.0 | 0.0 | 0.00 | 0.00 | 0.00 | 88 | 1018.4 |
| 20260903232505 | 60 | 210 | 0.0 | 0.0 | 0.00 | 0.00 | 0.00 | 88 | 1018.3 |
| 20260903232005 | 60 | 210 | 0.0 | 0.0 | 0.00 | 0.00 | 0.00 | 88 | 1018.4 |
| 20260903231504 | 60 | 217 | 0.0 | 0.0 | 0.00 | 0.00 | 0.00 | 88 | 1018.6 |
| 20260903231001 | 60 | 217 | 0.0 | 0.0 | 0.00 | 0.00 | 0.00 | 88 | 1018.5 |
| 20260903230600 | 60 | 217 | 0.0 | 0.0 | 0.00 | 0.00 | 0.00 | 88 | 1018.5 |
| 20260903230100 | 60 | 225 | 0.0 | 0.0 | 0.00 | 0.00 | 0.00 | 88 | 1018.4 |
| 20260903225600 | 59 | 225 | 0.0 | 0.0 | 0.00 | 0.00 | 0.00 | 88 | 1018.4 |
| 20260903225103 | 59 | 226 | 0.0 | 0.0 | 0.00 | 0.00 | 0.00 | 88 | 1018.3 |
| 20260903224558 | 59 | 209 | 0.0 | 0.0 | 0.00 | 0.00 | 0.00 | 88 | 1018.4 |
| 20260903224100 | 59 | 209 | 0.0 | 0.0 | 0.00 | 0.00 | 0.00 | 88 | 1018.4 |
| 20260903223557 | 59 | 229 | 0.0 | 0.0 | 0.00 | 0.00 | 0.00 | 88 | 1018.4 |
| 20260903223058 | 59 | 225 | 0.0 | 0.0 | 0.00 | 0.00 | 0.00 | 88 | 1018.4 |
| 20260903222557 | 60 | 225 | 0.0 | 0.0 | 0.00 | 0.00 | 0.00 | 88 | 1018.5 |
| 20260903222057 | 60 | 231 | 0.0 | 0.0 | 0.00 | 0.00 | 0.00 | 88 | 1018.5 |
| 20260903221557 | 60 | 232 | 0.0 | 0.0 | 0.00 | 0.00 | 0.00 | 87 | 1018.5 |
| 20260903221056 | 60 | 232 | 0.0 | 0.0 | 0.00 | 0.00 | 0.00 | 87 | 1018.5 |
| 20260903220600 | 60 | 207 | 0.0 | 0.0 | 0.00 | 0.00 | 0.00 | 87 | 1018.5 |
| 20260903220105 | 60 | 207 | 0.0 | 0.0 | 0.00 | 0.00 | 0.00 | 87 | 1018.4 |
| 20260903215553 | 60 | 273 | 0.0 | 0.0 | 0.00 | 0.00 | 0.00 | 87 | 1018.5 |
| 20260903215054 | 60 | 206 | 0.0 | 0.0 | 0.00 | 0.00 | 0.00 | 86 | 1018.5 |
| 20260903214556 | 60 | 199 | 0.0 | 0.0 | 0.00 | 0.00 | 0.00 | 86 | 1018.5 |
| 20260903214054 | 60 | 257 | 0.0 | 0.0 | 0.00 | 0.00 | 0.00 | 86 | 1018.7 |
| 20260903213554 | 60 | 231 | 0.0 | 8.0 | 0.00 | 0.00 | 0.00 | 86 | 1018.7 |
| 20260903213059 | 60 | 278 | 1.0 | 8.0 | 0.00 | 0.00 | 0.00 | 86 | 1018.6 |
| 20260903212557 | 60 | 271 | 0.0 | 1.0 | 0.00 | 0.00 | 0.00 | 86 | 1018.6 |
| 20260903212053 | 60 | 225 | 0.0 | 2.0 | 0.00 | 0.00 | 0.00 | 85 | 1018.4 |
| 20260903211655 | 60 | 198 | 0.0 | 7.0 | 0.00 | 0.00 | 0.00 | 85 | 1018.4 |
| 20260903211052 | 61 | 253 | 2.0 | 7.0 | 0.00 | 0.00 | 0.00 | 85 | 1018.5 |
| 20260903210552 | 61 | 211 | 2.0 | 8.0 | 0.00 | 0.00 | 0.00 | 84 | 1018.3 |
| 20260903210059 | 61 | 252 | 3.0 | 8.0 | 0.00 | 0.00 | 0.00 | 84 | 1018.5 |
| 20260903205551 | 61 | 232 | 2.0 | 7.0 | 0.00 | 0.00 | 0.00 | 84 | 1018.6 |
| 20260903205051 | 61 | 275 | 2.0 | 8.0 | 0.00 | 0.00 | 0.00 | 84 | 1018.6 |
| 20260903204551 | 61 | 191 | 2.0 | 9.0 | 0.00 | 0.00 | 0.00 | 84 | 1018.6 |
| 20260903204051 | 61 | 191 | 3.0 | 9.0 | 0.00 | 0.00 | 0.00 | 84 | 1018.5 |
| 20260903203551 | 61 | 236 | 2.0 | 9.0 | 0.00 | 0.00 | 0.00 | 84 | 1018.6 |
| 20260903203113 | 61 | 279 | 2.0 | 10.0 | 0.00 | 0.00 | 0.00 | 84 | 1018.6 |
| 20260903202550 | 61 | 252 | 3.0 | 10.0 | 0.00 | 0.00 | 0.00 | 83 | 1018.5 |
| 20260903202050 | 61 | 161 | 3.0 | 9.0 | 0.00 | 0.00 | 0.00 | 83 | 1018.5 |
| 20260903201550 | 61 | 208 | 2.0 | 10.0 | 0.00 | 0.00 | 0.00 | 83 | 1018.6 |
| 20260903201049 | 61 | 162 | 3.0 | 10.0 | 0.00 | 0.00 | 0.00 | 83 | 1018.6 |
| 20260903200551 | 61 | 225 | 2.0 | 6.0 | 0.00 | 0.00 | 0.00 | 84 | 1018.6 |
| 20260903200049 | 61 | 234 | 3.0 | 8.0 | 0.00 | 0.00 | 0.00 | 84 | 1018.7 |
| 20260903195553 | 61 | 220 | 2.0 | 8.0 | 0.00 | 0.00 | 0.00 | 84 | 1018.7 |
| 20260903195049 | 61 | 244 | 1.0 | 8.0 | 0.00 | 0.00 | 0.00 | 84 | 1018.7 |
| 20260903194651 | 61 | 150 | 2.0 | 8.0 | 0.00 | 0.00 | 0.00 | 84 | 1018.7 |
| 20260903194048 | 61 | 225 | 3.0 | 8.0 | 0.00 | 0.00 | 0.00 | 85 | 1019.0 |
| 20260903193549 | 61 | 209 | 2.0 | 10.0 | 0.00 | 0.00 | 0.00 | 85 | 1018.8 |
| 20260903193047 | 61 | 236 | 2.0 | 10.0 | 0.00 | 0.00 | 0.00 | 85 | 1018.7 |
| 20260903192549 | 61 | 229 | 2.0 | 9.0 | 0.00 | 0.00 | 0.00 | 84 | 1018.6 |
| 20260903192046 | 61 | 200 | 3.0 | 10.0 | 0.00 | 0.00 | 0.00 | 85 | 1018.7 |
| 20260903191550 | 61 | 227 | 5.0 | 12.0 | 0.00 | 0.00 | 0.00 | 85 | 1018.8 |
| 20260903191046 | 61 | 281 | 2.0 | 12.0 | 0.00 | 0.00 | 0.00 | 86 | 1018.8 |
| 20260903190550 | 61 | 236 | 3.0 | 8.0 | 0.00 | 0.00 | 0.00 | 86 | 1018.8 |
| 20260903190047 | 61 | 311 | 2.0 | 10.0 | 0.00 | 0.00 | 0.00 | 87 | 1018.7 |
| 20260903185550 | 61 | 229 | 1.0 | 7.0 | 0.00 | 0.00 | 0.00 | 87 | 1018.7 |
| 20260903185046 | 61 | 184 | 3.0 | 9.0 | 0.00 | 0.00 | 0.00 | 87 | 1018.8 |
| 20260903184546 | 61 | 184 | 4.0 | 13.0 | 0.00 | 0.00 | 0.00 | 87 | 1018.8 |
| 20260903184048 | 61 | 184 | 2.0 | 13.0 | 0.00 | 0.00 | 0.00 | 87 | 1018.8 |
| 20260903183544 | 61 | 232 | 3.0 | 11.0 | 0.00 | 0.00 | 0.00 | 86 | 1018.9 |
| 20260903183047 | 61 | 268 | 4.0 | 11.0 | 0.00 | 0.00 | 0.00 | 86 | 1018.8 |
| 20260903182545 | 61 | 231 | 4.0 | 11.0 | 0.00 | 0.00 | 0.00 | 86 | 1018.9 |
| 20260903182046 | 61 | 266 | 3.0 | 11.0 | 0.00 | 0.00 | 0.00 | 85 | 1018.9 |
| 20260903181545 | 61 | 267 | 3.0 | 11.0 | 0.00 | 0.00 | 0.00 | 85 | 1018.8 |
| 20260903181047 | 61 | 160 | 4.0 | 11.0 | 0.00 | 0.00 | 0.00 | 84 | 1018.9 |
| 20260903180544 | 61 | 223 | 3.0 | 10.0 | 0.00 | 0.00 | 0.00 | 84 | 1018.9 |
| 20260903180043 | 61 | 255 | 2.0 | 7.0 | 0.00 | 0.00 | 0.00 | 83 | 1018.7 |
| 20260903175548 | 61 | 180 | 2.0 | 6.0 | 0.00 | 0.00 | 0.00 | 83 | 1018.7 |
| 20260903175043 | 61 | 209 | 2.0 | 6.0 | 0.00 | 0.00 | 0.00 | 83 | 1018.7 |
| 20260903174543 | 62 | 215 | 1.0 | 8.0 | 0.00 | 0.00 | 0.00 | 83 | 1018.7 |
| 20260903174046 | 62 | 274 | 2.0 | 12.0 | 0.00 | 0.00 | 0.00 | 83 | 1018.7 |
| 20260903173544 | 61 | 223 | 2.0 | 13.0 | 0.00 | 0.00 | 0.00 | 83 | 1018.7 |
| 20260903173042 | 61 | 267 | 4.0 | 10.0 | 0.00 | 0.00 | 0.00 | 83 | 1018.7 |
| 20260903172542 | 61 | 186 | 2.0 | 7.0 | 0.00 | 0.00 | 0.00 | 83 | 1018.7 |
| 20260903172041 | 61 | 239 | 1.0 | 5.0 | 0.00 | 0.00 | 0.00 | 83 | 1018.7 |
| 20260903171557 | 62 | 228 | 0.0 | 10.0 | 0.00 | 0.00 | 0.00 | 83 | 1018.7 |
| 20260903171043 | 62 | 277 | 2.0 | 10.0 | 0.00 | 0.00 | 0.00 | 82 | 1018.7 |
| 20260903170542 | 62 | 250 | 2.0 | 9.0 | 0.00 | 0.00 | 0.00 | 82 | 1018.7 |
| 20260903170042 | 62 | 223 | 2.0 | 10.0 | 0.00 | 0.00 | 0.00 | 82 | 1018.6 |
| 20260903165541 | 62 | 212 | 3.0 | 11.0 | 0.00 | 0.00 | 0.00 | 82 | 1018.6 |
| 20260903165041 | 62 | 225 | 4.0 | 16.0 | 0.00 | 0.00 | 0.00 | 83 | 1018.7 |
| 20260903164558 | 61 | 315 | 3.0 | 11.0 | 0.00 | 0.00 | 0.00 | 84 | 1018.8 |
| 20260903164041 | 61 | 261 | 3.0 | 10.0 | 0.00 | 0.00 | 0.00 | 84 | 1018.9 |
| 20260903163541 | 62 | 227 | 3.0 | 10.0 | 0.00 | 0.00 | 0.00 | 83 | 1018.8 |
| 20260903163040 | 62 | 239 | 3.0 | 7.0 | 0.00 | 0.00 | 0.00 | 83 | 1018.8 |
| 20260903162540 | 63 | 227 | 1.0 | 7.0 | 0.00 | 0.00 | 0.00 | 81 | 1018.7 |
| 20260903162040 | 63 | 230 | 2.0 | 5.0 | 0.00 | 0.00 | 0.00 | 80 | 1018.6 |
| 20260903161540 | 64 | 268 | 2.0 | 6.0 | 0.00 | 0.00 | 0.00 | 78 | 1018.7 |
| 20260903161039 | 64 | 202 | 2.0 | 6.0 | 0.00 | 0.00 | 0.00 | 76 | 1018.6 |
| 20260903160539 | 64 | 217 | 1.0 | 5.0 | 0.00 | 0.00 | 0.00 | 75 | 1018.6 |
| 20260903160041 | 64 | 192 | 1.0 | 5.0 | 0.00 | 0.00 | 0.00 | 75 | 1018.6 |
| 20260903155538 | 64 | 230 | 1.0 | 5.0 | 0.00 | 0.00 | 0.00 | 75 | 1018.6 |
| 20260903155039 | 64 | 250 | 1.0 | 7.0 | 0.00 | 0.00 | 0.00 | 76 | 1018.6 |
| 20260903154547 | 64 | 222 | 2.0 | 7.0 | 0.00 | 0.00 | 0.00 | 76 | 1018.6 |
| 20260903154041 | 64 | 221 | 0.0 | 5.0 | 0.00 | 0.00 | 0.00 | 74 | 1018.7 |
| 20260903153537 | 64 | 228 | 2.0 | 4.0 | 0.00 | 0.00 | 0.00 | 74 | 1018.7 |
| 20260903153038 | 65 | 277 | 2.0 | 5.0 | 0.00 | 0.00 | 0.00 | 74 | 1018.7 |
| 20260903152538 | 65 | 216 | 2.0 | 6.0 | 0.00 | 0.00 | 0.00 | 74 | 1018.7 |
| 20260903152041 | 65 | 192 | 2.0 | 6.0 | 0.00 | 0.00 | 0.00 | 73 | 1018.6 |
| 20260903151538 | 65 | 228 | 1.0 | 9.0 | 0.00 | 0.00 | 0.00 | 73 | 1018.7 |
| 20260903151037 | 65 | 227 | 2.0 | 9.0 | 0.00 | 0.00 | 0.00 | 73 | 1018.6 |
| 20260903150537 | 65 | 234 | 2.0 | 5.0 | 0.00 | 0.00 | 0.00 | 73 | 1018.6 |
| 20260903150038 | 65 | 265 | 1.0 | 8.0 | 0.00 | 0.00 | 0.00 | 74 | 1018.5 |
| 20260903145536 | 65 | 238 | 2.0 | 8.0 | 0.00 | 0.00 | 0.00 | 72 | 1018.6 |
| 20260903145036 | 65 | 255 | 1.0 | 10.0 | 0.00 | 0.00 | 0.00 | 73 | 1018.8 |
| 20260903144543 | 65 | 298 | 3.0 | 7.0 | 0.00 | 0.00 | 0.00 | 72 | 1018.8 |
| 20260903144038 | 65 | 275 | 2.0 | 7.0 | 0.00 | 0.00 | 0.00 | 72 | 1018.7 |
| 20260903143534 | 65 | 235 | 2.0 | 8.0 | 0.00 | 0.00 | 0.00 | 72 | 1018.7 |
| 20260903143044 | 65 | 277 | 3.0 | 9.0 | 0.00 | 0.00 | 0.00 | 72 | 1018.7 |
| 20260903142535 | 66 | 233 | 2.0 | 9.0 | 0.00 | 0.00 | 0.00 | 71 | 1018.8 |
| 20260903142035 | 66 | 225 | 3.0 | 10.0 | 0.00 | 0.00 | 0.00 | 70 | 1018.8 |
| 20260903141535 | 67 | 283 | 3.0 | 7.0 | 0.00 | 0.00 | 0.00 | 69 | 1018.7 |
| 20260903141036 | 67 | 235 | 2.0 | 7.0 | 0.00 | 0.00 | 0.00 | 69 | 1018.8 |
| 20260903140534 | 68 | 271 | 3.0 | 10.0 | 0.00 | 0.00 | 0.00 | 67 | 1018.7 |
| 20260903140041 | 68 | 189 | 4.0 | 10.0 | 0.00 | 0.00 | 0.00 | 66 | 1018.7 |
| 20260903135534 | 68 | 273 | 3.0 | 7.0 | 0.00 | 0.00 | 0.00 | 69 | 1018.6 |
| 20260903135035 | 68 | 248 | 2.0 | 9.0 | 0.00 | 0.00 | 0.00 | 67 | 1018.6 |
| 20260903134533 | 69 | 200 | 2.0 | 8.0 | 0.00 | 0.00 | 0.00 | 65 | 1018.8 |
| 20260903134032 | 69 | 207 | 3.0 | 9.0 | 0.00 | 0.00 | 0.00 | 68 | 1018.9 |
| 20260903133534 | 69 | 300 | 4.0 | 9.0 | 0.00 | 0.00 | 0.00 | 67 | 1018.8 |
| 20260903133030 | 68 | 314 | 4.0 | 9.0 | 0.00 | 0.00 | 0.00 | 68 | 1018.8 |
| 20260903132528 | 67 | 207 | 3.0 | 7.0 | 0.00 | 0.00 | 0.00 | 68 | 1019.0 |
| 20260903132028 | 67 | 250 | 1.0 | 8.0 | 0.00 | 0.00 | 0.00 | 72 | 1019.1 |
| 20260903131529 | 67 | 188 | 3.0 | 10.0 | 0.00 | 0.00 | 0.00 | 70 | 1019.2 |
| 20260903131029 | 66 | 248 | 3.0 | 12.0 | 0.00 | 0.00 | 0.00 | 69 | 1019.2 |
| 20260903130529 | 66 | 152 | 3.0 | 12.0 | 0.00 | 0.00 | 0.00 | 69 | 1019.3 |
| 20260903130029 | 66 | 291 | 5.0 | 10.0 | 0.00 | 0.00 | 0.00 | 69 | 1019.4 |
| 20260903125528 | 67 | 241 | 3.0 | 8.0 | 0.00 | 0.00 | 0.00 | 70 | 1019.2 |
| 20260903125028 | 67 | 184 | 3.0 | 7.0 | 0.00 | 0.00 | 0.00 | 70 | 1019.1 |
| 20260903124527 | 67 | 141 | 2.0 | 5.0 | 0.00 | 0.00 | 0.00 | 71 | 1019.0 |
| 20260903124026 | 68 | 169 | 1.0 | 8.0 | 0.00 | 0.00 | 0.00 | 69 | 1019.3 |
| 20260903123530 | 68 | 222 | 2.0 | 10.0 | 0.00 | 0.00 | 0.00 | 68 | 1019.3 |
| 20260903123027 | 69 | 243 | 4.0 | 11.0 | 0.00 | 0.00 | 0.00 | 68 | 1019.4 |
| 20260903122527 | 69 | 227 | 2.0 | 10.0 | 0.00 | 0.00 | 0.00 | 74 | 1019.3 |
| 20260903122023 | 68 | 185 | 3.0 | 7.0 | 0.00 | 0.00 | 0.00 | 71 | 1019.4 |
| 20260903121530 | 68 | 228 | 1.0 | 8.0 | 0.00 | 0.00 | 0.00 | 72 | 1019.3 |
| 20260903121021 | 67 | 181 | 3.0 | 8.0 | 0.00 | 0.00 | 0.00 | 72 | 1019.3 |
| 20260903120520 | 66 | 134 | 2.0 | 8.0 | 0.00 | 0.00 | 0.00 | 73 | 1019.3 |
| 20260903120035 | 66 | 243 | 3.0 | 6.0 | 0.00 | 0.00 | 0.00 | 73 | 1019.3 |
| 20260903115516 | 65 | 293 | 2.0 | 8.0 | 0.00 | 0.00 | 0.00 | 75 | 1019.3 |
| 20260903115017 | 65 | 257 | 2.0 | 8.0 | 0.00 | 0.00 | 0.00 | 74 | 1019.4 |
| 20260903114516 | 65 | 190 | 1.0 | 8.0 | 0.00 | 0.00 | 0.00 | 74 | 1019.6 |
| 20260903114015 | 65 | 198 | 3.0 | 10.0 | 0.00 | 0.00 | 0.00 | 74 | 1019.7 |
| 20260903113515 | 65 | 113 | 4.0 | 10.0 | 0.00 | 0.00 | 0.00 | 73 | 1019.7 |
| 20260903113020 | 64 | 244 | 3.0 | 8.0 | 0.00 | 0.00 | 0.00 | 73 | 1019.9 |
| 20260903112515 | 65 | 218 | 4.0 | 8.0 | 0.00 | 0.00 | 0.00 | 73 | 1020.1 |
| 20260903112017 | 65 | 217 | 1.0 | 7.0 | 0.00 | 0.00 | 0.00 | 75 | 1019.9 |
| 20260903111515 | 64 | 248 | 1.0 | 7.0 | 0.00 | 0.00 | 0.00 | 75 | 1019.9 |
| 20260903111017 | 64 | 229 | 2.0 | 7.0 | 0.00 | 0.00 | 0.00 | 74 | 1019.8 |
| 20260903110513 | 64 | 212 | 3.0 | 8.0 | 0.00 | 0.00 | 0.00 | 73 | 1019.8 |
| 20260903110013 | 64 | 155 | 1.0 | 7.0 | 0.00 | 0.00 | 0.00 | 76 | 1019.7 |
| 20260903105512 | 64 | 209 | 1.0 | 7.0 | 0.00 | 0.00 | 0.00 | 76 | 1020.0 |
| 20260903105012 | 64 | 174 | 1.0 | 7.0 | 0.00 | 0.00 | 0.00 | 75 | 1020.1 |